Trail des Croix (Francheville) 02/08/2014 - 37 Km
Place Nom Prenom Temps Km/h Place. Cat. Cat.
1 DEVILLE MATHIEU 1 3:08:18 11,8 1 S
2 WATERVAL CLAUDE 72 3:11:48 11,6 2 S
3 MOREAU BERNARD 88 3:29:03 10,6 1 V1
4 BRASSEUR GREGORY 79 3:30:26 10,5 3 S
5 BASTIN MICHEL 8 3:34:54 10,3 4 S
6 BOSCH JOHN 68 3:37:10 10,2 1 V2
7 JACOB-PAQUAY ERIC 58 3:39:17 10,1 2 V1
8 PACKBIER ROMAN 77 3:42:55 10,0 3 V1
9 LAFFINEUR PIERRE 73 3:47:31 9,8 5 S
10 DELCHAMBRE RENAUD 2 3:48:01 9,7 6 S
11 BASTIN ROBERT 71 3:49:58 9,7 4 V1
12 COLINET STEVE 95 3:53:35 9,5 7 S
13 REUL BENEDICTE 98 3:55:24 9,4 1 A1
14 PEELEN ANTHONY 97 3:55:27 9,4 8 S
15 DEWIT RAYMOND 24 3:56:53 9,4 5 V1
16 PANZA JEAN-FRANÇOIS 53 3:59:28 9,3 9 S
17 ROOMANS CHRISTIAN 5 4:05:27 9,0 2 V2
18 HOUYON SERGE 40 4:07:44 9,0 6 V1
19 VAN HEUSDEN OLIVIER 89 4:07:58 9,0 7 V1
20 ROBERT RUDY 75 4:08:15 8,9 8 V1
21 FALISSE GAIZKA 93 4:09:02 8,9 10 S
22 BERTRAND YVES 87 4:10:00 8,9 9 V1
23 DOUTRELOUX FRANCOIS 90 4:16:08 8,7 11 S
24 THIBAULT BASTIEN 67 4:16:45 8,6 12 S
25 SALIS STEPHANE 99 4:17:26 8,6 10 V1
26 LIEGEOIS MARC 74 4:19:59 8,5 11 V1
27 VINDERS ROGER 78 4:20:44 8,5 13 S
28 DEMOULIN FRANCOIS 19 4:21:35 8,5 14 S
29 GIGI JEAN-PIERRE 50 4:21:44 8,5 12 V1
30 VINCENT DOMINIQUE 55 4:23:06 8,4 1 A3
31 ROSA LAURENT 100 4:25:00 8,4 13 V1
32 MELISEN CHRISTELLE 91 4:25:27 8,4 2 A1
33 PIEDBOEUF JEAN 61 4:26:51 8,3 14 V1
34 VERELLEN FRANKY 92 4:27:55 8,3 15 S
35 TREGUIER ALEXANDRE 85 4:28:08 8,3 16 S
36 FAUVEL RICHARD 84 4:28:08 8,3 17 S
37 JACQMIN DAMIEN 66 4:29:13 8,2 18 S
38 MARCISZEWSKA MALGORZATA 83 4:33:49 8,1 1 D
39 JANSEN SASCHA 44 4:38:41 8,0 15 V1
40 BERTRAND VALENTIN 76 4:39:17 7,9 19 S
41 RASSART MARC 64 4:40:27 7,9 16 V1
42 STAINIER ERIC 56 4:41:28 7,9 3 V2
43 ROSA HUGUES 96 4:46:40 7,7 20 S
44 VAN DEN EEDE NOELLE 34 4:47:17 7,7 3 A1
45 POLLINA GIOVANNI 51 4:50:02 7,7 4 V2
46 PIERRON ROLAND 43 4:52:31 7,6 1 V3
47 VAN REET SEBASTIEN 22 4:52:48 7,6 21 S
48 CAPOUET MATHIEU 57 4:56:27 7,5 22 S
49 KESTEMONT BRUNO 30 4:56:27 7,5 5 V2
50 MÜLLER ALAIN 6 4:56:27 7,5 17 V1
51 WESTRA JOHAN 25 4:56:27 7,5 6 V2
52 DAVID PATRICK 94 4:58:48 7,4 7 V2
53 DESCHAMPS VALENTIN 82 5:01:21 7,4 23 S
54 MUNAUT JEREMY 29 5:04:04 7,3 24 S
55 KUIJS ARJAN 47 5:05:34 7,3 25 S
56 CUPPENS BENOIT 36 5:06:03 7,3 26 S
57 RENIERS MICHEL 48 5:07:14 7,2 18 V1
58 SIMON MAGALI 54 5:07:48 7,2 4 A1
59 MAHIEU PHILIPPE 38 5:16:19 7,0 8 V2
60 DOHOGNE CHRISTIAN 10 5:16:53 7,0 19 V1
61 MICHELIS FRANÇOIS 52 5:16:55 7,0 27 S
62 GERARD ERIC 63 5:22:17 6,9 20 V1
63 REUCHAMPS RÉGINE 86 5:25:50 6,8 1 A2
64 SARLET CAROL 28 5:25:50 6,8 2 D
65 FETTWEIS THIERRY 20 5:25:50 6,8 9 V2
66 PRIESTER ELS 62 5:36:08 6,6 2 A2
67 BASTIN ISABELLE 70 5:42:11 6,5 5 A1
68 PIRONNET ERIC 33 5:50:45 6,3 10 V2